| time (UTC) | temp C | wind direction | speed KPH | gust KPH | rain 1hr cm | rain 24hr cm | rain mn cm | humidity % | barometer mb |
| 20260504034624 | 11 | 341 | 0.0 | 0.0 | 0.00 | 0.00 | 0.00 | 84 | 1017.3 |
| 20260504034120 | 11 | 336 | 0.0 | 0.0 | 0.00 | 0.00 | 0.00 | 82 | 1017.4 |
| 20260504033618 | 11 | 345 | 0.0 | 0.0 | 0.00 | 0.00 | 0.00 | 82 | 1017.5 |
| 20260504033115 | 11 | 334 | 0.0 | 1.6 | 0.00 | 0.00 | 0.00 | 82 | 1017.4 |
| 20260504032612 | 12 | 293 | 0.0 | 0.0 | 0.00 | 0.00 | 0.00 | 83 | 1017.5 |
| 20260504032109 | 12 | 26 | 0.0 | 0.0 | 0.00 | 0.00 | 0.00 | 80 | 1017.5 |
| 20260504031606 | 12 | 260 | 0.0 | 0.0 | 0.00 | 0.00 | 0.00 | 82 | 1017.6 |
| 20260504031102 | 11 | 123 | 6.4 | 8.0 | 0.00 | 0.00 | 0.00 | 83 | 1017.7 |
| 20260504030559 | 12 | 123 | 1.6 | 3.2 | 0.00 | 0.00 | 0.00 | 84 | 1017.7 |
| 20260504030056 | 12 | 133 | 0.0 | 0.0 | 0.00 | 0.00 | 0.00 | 83 | 1017.8 |
| 20260504025553 | 12 | 133 | 3.2 | 3.2 | 0.00 | 0.00 | 0.00 | 82 | 1017.6 |
| 20260504025049 | 12 | 23 | 0.0 | 0.0 | 0.00 | 0.00 | 0.00 | 82 | 1017.9 |
| 20260504024547 | 12 | 132 | 4.8 | 8.0 | 0.00 | 0.00 | 0.00 | 81 | 1017.9 |
| 20260504024043 | 12 | 16 | 0.0 | 0.0 | 0.00 | 0.00 | 0.00 | 80 | 1018.0 |
| 20260504023540 | 12 | 156 | 4.8 | 8.0 | 0.00 | 0.00 | 0.00 | 81 | 1017.6 |
| 20260504023036 | 11 | 150 | 3.2 | 4.8 | 0.00 | 0.00 | 0.00 | 86 | 1017.5 |
| 20260504022532 | 10 | 344 | 0.0 | 0.0 | 0.00 | 0.00 | 0.00 | 82 | 1017.6 |
| 20260504022029 | 10 | 331 | 0.0 | 0.0 | 0.00 | 0.00 | 0.00 | 82 | 1017.6 |
| 20260504021526 | 8 | 352 | 0.0 | 0.0 | 0.00 | 0.00 | 0.00 | 77 | 1017.5 |
| 20260504021023 | 8 | 5 | 0.0 | 0.0 | 0.00 | 0.00 | 0.00 | 74 | 1017.5 |
| 20260504020520 | 8 | 9 | 0.0 | 0.0 | 0.00 | 0.00 | 0.00 | 75 | 1017.5 |
| 20260504020016 | 8 | 318 | 0.0 | 0.0 | 0.00 | 0.00 | 0.00 | 75 | 1017.4 |
| 20260504015513 | 8 | 113 | 1.6 | 1.6 | 0.00 | 0.00 | 0.00 | 74 | 1017.4 |
| 20260504015009 | 9 | 348 | 0.0 | 0.0 | 0.00 | 0.00 | 0.00 | 75 | 1017.2 |
| 20260504014505 | 9 | 345 | 1.6 | 1.6 | 0.00 | 0.00 | 0.00 | 74 | 1017.0 |
| 20260504014002 | 9 | 338 | 1.6 | 1.6 | 0.00 | 0.00 | 0.00 | 73 | 1017.1 |
| 20260504013500 | 9 | 340 | 1.6 | 1.6 | 0.00 | 0.00 | 0.00 | 73 | 1016.8 |
| 20260504012955 | 9 | 336 | 1.6 | 1.6 | 0.00 | 0.00 | 0.00 | 72 | 1016.5 |
| 20260504012454 | 9 | 342 | 0.0 | 0.0 | 0.00 | 0.00 | 0.00 | 71 | 1016.7 |
| 20260504011952 | 9 | 344 | 0.0 | 0.0 | 0.00 | 0.00 | 0.00 | 71 | 1016.6 |
| 20260504011448 | 9 | 353 | 0.0 | 0.0 | 0.00 | 0.00 | 0.00 | 71 | 1016.6 |
| 20260504010944 | 10 | 353 | 0.0 | 0.0 | 0.00 | 0.00 | 0.00 | 71 | 1016.3 |
| 20260504010440 | 10 | 346 | 0.0 | 0.0 | 0.00 | 0.00 | 0.00 | 72 | 1016.3 |
| 20260504005936 | 10 | 340 | 0.0 | 0.0 | 0.00 | 0.00 | 0.00 | 71 | 1016.2 |
| 20260504005433 | 10 | 346 | 0.0 | 0.0 | 0.00 | 0.00 | 0.00 | 71 | 1016.5 |
| 20260504004931 | 10 | 346 | 0.0 | 0.0 | 0.00 | 0.00 | 0.00 | 70 | 1016.2 |
| 20260504004428 | 10 | 344 | 0.0 | 0.0 | 0.00 | 0.00 | 0.00 | 69 | 1016.0 |
| 20260504003925 | 10 | 356 | 0.0 | 0.0 | 0.00 | 0.00 | 0.00 | 68 | 1016.0 |
| 20260504003421 | 10 | 334 | 1.6 | 1.6 | 0.00 | 0.00 | 0.00 | 68 | 1016.2 |
| 20260504002918 | 11 | 335 | 1.6 | 1.6 | 0.00 | 0.00 | 0.00 | 67 | 1015.9 |
| 20260504002415 | 11 | 351 | 1.6 | 1.6 | 0.00 | 0.00 | 0.00 | 66 | 1015.9 |
| 20260504001913 | 11 | 333 | 1.6 | 1.6 | 0.00 | 0.00 | 0.00 | 66 | 1015.9 |
| 20260504001410 | 11 | 340 | 1.6 | 1.6 | 0.00 | 0.00 | 0.00 | 66 | 1016.0 |
| 20260504000906 | 11 | 337 | 0.0 | 0.0 | 0.00 | 0.00 | 0.00 | 64 | 1015.8 |
| 20260504000404 | 12 | 339 | 0.0 | 0.0 | 0.00 | 0.00 | 0.00 | 66 | 1015.7 |
| 20260503235901 | 12 | 330 | 1.6 | 1.6 | 0.00 | 0.00 | 0.00 | 66 | 1015.8 |
| 20260503235359 | 12 | 321 | 1.6 | 1.6 | 0.00 | 0.00 | 0.00 | 65 | 1015.8 |
| 20260503234855 | 12 | 326 | 0.0 | 1.6 | 0.00 | 0.00 | 0.00 | 62 | 1015.8 |
| 20260503234353 | 13 | 321 | 1.6 | 1.6 | 0.00 | 0.00 | 0.00 | 62 | 1015.6 |
| 20260503233851 | 13 | 314 | 0.0 | 0.0 | 0.00 | 0.00 | 0.00 | 58 | 1015.5 |
| 20260503233347 | 14 | 314 | 0.0 | 0.0 | 0.00 | 0.00 | 0.00 | 57 | 1015.6 |
| 20260503232843 | 15 | 2 | 0.0 | 0.0 | 0.00 | 0.00 | 0.00 | 51 | 1015.5 |
| 20260503232341 | 15 | 71 | 0.0 | 0.0 | 0.00 | 0.00 | 0.00 | 51 | 1015.3 |
| 20260503231839 | 15 | 78 | 0.0 | 0.0 | 0.00 | 0.00 | 0.00 | 48 | 1015.6 |
| 20260503231336 | 15 | 293 | 0.0 | 0.0 | 0.00 | 0.00 | 0.00 | 50 | 1015.4 |
| 20260503230831 | 15 | 298 | 0.0 | 0.0 | 0.00 | 0.00 | 0.00 | 54 | 1015.3 |
| 20260503230329 | 16 | 297 | 0.0 | 0.0 | 0.00 | 0.00 | 0.00 | 49 | 1015.5 |
| 20260503225826 | 16 | 114 | 0.0 | 0.0 | 0.00 | 0.00 | 0.00 | 43 | 1015.2 |
| 20260503225322 | 16 | 149 | 0.0 | 0.0 | 0.00 | 0.00 | 0.00 | 43 | 1015.4 |
| 20260503224818 | 16 | 173 | 0.0 | 1.6 | 0.00 | 0.00 | 0.00 | 44 | 1015.0 |
| 20260503224316 | 16 | 305 | 1.6 | 1.6 | 0.00 | 0.00 | 0.00 | 42 | 1015.2 |
| 20260503223814 | 16 | 38 | 0.0 | 0.0 | 0.00 | 0.00 | 0.00 | 43 | 1015.3 |
| 20260503223311 | 16 | 112 | 4.8 | 4.8 | 0.00 | 0.00 | 0.00 | 39 | 1015.0 |
| 20260503222807 | 17 | 139 | 0.0 | 0.0 | 0.00 | 0.00 | 0.00 | 44 | 1015.2 |
| 20260503222306 | 17 | 260 | 0.0 | 0.0 | 0.00 | 0.00 | 0.00 | 40 | 1015.3 |
| 20260503221803 | 17 | 130 | 1.6 | 3.2 | 0.00 | 0.00 | 0.00 | 41 | 1015.1 |
| 20260503221301 | 17 | 107 | 0.0 | 1.6 | 0.00 | 0.00 | 0.00 | 40 | 1015.2 |
| 20260503220757 | 17 | 148 | 1.6 | 3.2 | 0.00 | 0.00 | 0.00 | 38 | 1015.1 |
| 20260503220254 | 17 | 137 | 3.2 | 4.8 | 0.00 | 0.00 | 0.00 | 39 | 1015.2 |
| 20260503215751 | 17 | 277 | 1.6 | 3.2 | 0.00 | 0.00 | 0.00 | 40 | 1015.3 |
| 20260503215248 | 17 | 203 | 0.0 | 0.0 | 0.00 | 0.00 | 0.00 | 41 | 1015.0 |
| 20260503214746 | 17 | 319 | 0.0 | 0.0 | 0.00 | 0.00 | 0.00 | 42 | 1015.2 |
| 20260503214242 | 17 | 56 | 0.0 | 0.0 | 0.00 | 0.00 | 0.00 | 40 | 1015.2 |
| 20260503213741 | 17 | 53 | 1.6 | 1.6 | 0.00 | 0.00 | 0.00 | 40 | 1015.1 |
| 20260503213238 | 17 | 136 | 3.2 | 3.2 | 0.00 | 0.00 | 0.00 | 40 | 1014.9 |
| 20260503212734 | 17 | 123 | 1.6 | 1.6 | 0.00 | 0.00 | 0.00 | 41 | 1015.1 |
| 20260503212232 | 17 | 126 | 1.6 | 1.6 | 0.00 | 0.00 | 0.00 | 41 | 1015.0 |
| 20260503211729 | 17 | 182 | 4.8 | 4.8 | 0.00 | 0.00 | 0.00 | 41 | 1015.0 |
| 20260503211225 | 17 | 150 | 6.4 | 8.0 | 0.00 | 0.00 | 0.00 | 40 | 1014.9 |
| 20260503210721 | 17 | 201 | 3.2 | 3.2 | 0.00 | 0.00 | 0.00 | 41 | 1015.0 |
| 20260503210219 | 17 | 22 | 1.6 | 1.6 | 0.00 | 0.00 | 0.00 | 39 | 1014.9 |
| 20260503205714 | 17 | 173 | 4.8 | 4.8 | 0.00 | 0.00 | 0.00 | 40 | 1015.0 |
| 20260503205210 | 17 | 25 | 1.6 | 1.6 | 0.00 | 0.00 | 0.00 | 41 | 1014.9 |
| 20260503204707 | 18 | 160 | 1.6 | 3.2 | 0.00 | 0.00 | 0.00 | 42 | 1015.1 |
| 20260503204204 | 17 | 340 | 1.6 | 1.6 | 0.00 | 0.00 | 0.00 | 42 | 1014.9 |
| 20260503203701 | 18 | 185 | 4.8 | 8.0 | 0.00 | 0.00 | 0.00 | 42 | 1015.0 |
| 20260503203159 | 18 | 206 | 3.2 | 3.2 | 0.00 | 0.00 | 0.00 | 39 | 1015.0 |
| 20260503202656 | 18 | 57 | 3.2 | 3.2 | 0.00 | 0.00 | 0.00 | 38 | 1015.0 |
| 20260503202154 | 18 | 66 | 1.6 | 3.2 | 0.00 | 0.00 | 0.00 | 37 | 1015.0 |
| 20260503201652 | 18 | 154 | 4.8 | 8.0 | 0.00 | 0.00 | 0.00 | 39 | 1015.1 |
| 20260503201149 | 18 | 158 | 3.2 | 3.2 | 0.00 | 0.00 | 0.00 | 40 | 1015.2 |
| 20260503200645 | 18 | 163 | 4.8 | 4.8 | 0.00 | 0.00 | 0.00 | 42 | 1015.3 |
| 20260503200141 | 18 | 325 | 0.0 | 1.6 | 0.00 | 0.00 | 0.00 | 44 | 1015.4 |
| 20260503195639 | 18 | 134 | 3.2 | 4.8 | 0.00 | 0.00 | 0.00 | 39 | 1015.5 |
| 20260503195135 | 18 | 106 | 3.2 | 3.2 | 0.00 | 0.00 | 0.00 | 41 | 1015.5 |
| 20260503194633 | 18 | 296 | 0.0 | 1.6 | 0.00 | 0.00 | 0.00 | 40 | 1015.4 |
| 20260503194128 | 18 | 298 | 4.8 | 4.8 | 0.00 | 0.00 | 0.00 | 42 | 1015.7 |
| 20260503193625 | 18 | 57 | 3.2 | 4.8 | 0.00 | 0.00 | 0.00 | 44 | 1015.6 |
| 20260503193120 | 18 | 151 | 4.8 | 8.0 | 0.00 | 0.00 | 0.00 | 43 | 1015.6 |
| 20260503192616 | 17 | 129 | 6.4 | 8.0 | 0.00 | 0.00 | 0.00 | 42 | 1015.8 |
| 20260503192112 | 17 | 140 | 4.8 | 8.0 | 0.00 | 0.00 | 0.00 | 43 | 1015.9 |
| 20260503191609 | 17 | 91 | 1.6 | 3.2 | 0.00 | 0.00 | 0.00 | 43 | 1015.8 |
| 20260503191106 | 18 | 233 | 3.2 | 3.2 | 0.00 | 0.00 | 0.00 | 44 | 1016.0 |
| 20260503190603 | 18 | 219 | 1.6 | 1.6 | 0.00 | 0.00 | 0.00 | 46 | 1016.0 |
| 20260503190100 | 17 | 302 | 1.6 | 1.6 | 0.00 | 0.00 | 0.00 | 45 | 1016.1 |
| 20260503185556 | 17 | 98 | 3.2 | 3.2 | 0.00 | 0.00 | 0.00 | 44 | 1016.1 |
| 20260503185056 | 16 | 120 | 1.6 | 1.6 | 0.00 | 0.00 | 0.00 | 43 | 1016.1 |
| 20260503184552 | 17 | 148 | 4.8 | 8.0 | 0.00 | 0.00 | 0.00 | 45 | 1016.3 |
| 20260503184049 | 17 | 22 | 1.6 | 1.6 | 0.00 | 0.00 | 0.00 | 46 | 1016.2 |
| 20260503183545 | 17 | 130 | 4.8 | 8.0 | 0.00 | 0.00 | 0.00 | 44 | 1016.2 |
| 20260503183043 | 17 | 349 | 3.2 | 4.8 | 0.00 | 0.00 | 0.00 | 43 | 1016.4 |
| 20260503182541 | 17 | 152 | 8.0 | 9.7 | 0.00 | 0.00 | 0.00 | 43 | 1016.4 |
| 20260503182039 | 17 | 7 | 1.6 | 1.6 | 0.00 | 0.00 | 0.00 | 48 | 1016.4 |
| 20260503181535 | 16 | 174 | 3.2 | 3.2 | 0.00 | 0.00 | 0.00 | 46 | 1016.6 |
| 20260503181032 | 17 | 48 | 3.2 | 3.2 | 0.00 | 0.00 | 0.00 | 44 | 1016.6 |
| 20260503180529 | 17 | 145 | 9.7 | 12.9 | 0.00 | 0.00 | 0.00 | 42 | 1016.7 |
| 20260503180026 | 16 | 132 | 3.2 | 8.0 | 0.00 | 0.00 | 0.00 | 45 | 1016.4 |
| 20260503175524 | 16 | 137 | 4.8 | 4.8 | 0.00 | 0.00 | 0.00 | 46 | 1016.6 |
| 20260503175020 | 16 | 196 | 3.2 | 4.8 | 0.00 | 0.00 | 0.00 | 46 | 1016.6 |
| 20260503174518 | 17 | 130 | 4.8 | 8.0 | 0.00 | 0.00 | 0.00 | 42 | 1016.7 |
| 20260503174014 | 16 | 131 | 0.0 | 0.0 | 0.00 | 0.00 | 0.00 | 46 | 1016.5 |
| 20260503173509 | 16 | 359 | 0.0 | 1.6 | 0.00 | 0.00 | 0.00 | 48 | 1016.6 |
| 20260503173006 | 15 | 148 | 1.6 | 4.8 | 0.00 | 0.00 | 0.00 | 49 | 1016.7 |
| 20260503172504 | 16 | 182 | 3.2 | 3.2 | 0.00 | 0.00 | 0.00 | 43 | 1016.6 |
| 20260503172001 | 16 | 252 | 1.6 | 3.2 | 0.00 | 0.00 | 0.00 | 48 | 1016.6 |
| 20260503171457 | 17 | 140 | 1.6 | 3.2 | 0.00 | 0.00 | 0.00 | 43 | 1016.7 |
| 20260503170954 | 16 | 131 | 4.8 | 4.8 | 0.00 | 0.00 | 0.00 | 46 | 1016.7 |
| 20260503170450 | 15 | 297 | 1.6 | 1.6 | 0.00 | 0.00 | 0.00 | 52 | 1016.6 |
| 20260503150843 | 15 | 91 | 4.8 | 8.0 | 0.00 | 0.00 | 0.00 | 48 | 1017.1 |
| 20260503150339 | 15 | 163 | 1.6 | 3.2 | 0.00 | 0.00 | 0.00 | 51 | 1017.0 |
| 20260503140303 | 13 | 340 | 3.2 | 3.2 | 0.00 | 0.00 | 0.00 | 57 | 1017.2 |
| 20260503131233 | 11 | 12 | 4.8 | 4.8 | 0.00 | 0.00 | 0.00 | 67 | 1016.8 |
| 20260503130730 | 11 | 32 | 1.6 | 1.6 | 0.00 | 0.00 | 0.00 | 70 | 1017.0 |
| 20260503130227 | 11 | 35 | 0.0 | 1.6 | 0.00 | 0.00 | 0.00 | 70 | 1016.7 |
| 20260503120153 | 9 | 15 | 1.6 | 1.6 | 0.00 | 0.00 | 0.00 | 83 | 1016.0 |
| 20260503110621 | 7 | 0 | 0.0 | 0.0 | 0.00 | 0.00 | 0.00 | 96 | 1015.0 |
| 20260503110118 | 7 | 350 | 0.0 | 0.0 | 0.00 | 0.00 | 0.00 | 96 | 1015.1 |
| 20260503090508 | 7 | 356 | 0.0 | 0.0 | 0.00 | 0.00 | 0.00 | 96 | 1013.2 |
| 20260503081434 | 7 | 336 | 0.0 | 0.0 | 0.00 | 0.00 | 0.00 | 96 | 1012.9 |
| 20260503080931 | 7 | 333 | 0.0 | 0.0 | 0.00 | 0.00 | 0.00 | 96 | 1012.8 |
| 20260503080428 | 7 | 333 | 0.0 | 0.0 | 0.00 | 0.00 | 0.00 | 96 | 1012.7 |
| 20260503072904 | 7 | 342 | 0.0 | 0.0 | 0.00 | 0.00 | 0.00 | 96 | 1012.1 |
| 20260503072401 | 7 | 342 | 0.0 | 0.0 | 0.00 | 0.00 | 0.00 | 96 | 1012.1 |
| 20260503071858 | 7 | 342 | 0.0 | 0.0 | 0.00 | 0.00 | 0.00 | 95 | 1012.3 |
| 20260503071355 | 7 | 342 | 0.0 | 0.0 | 0.00 | 0.00 | 0.00 | 95 | 1012.1 |
| 20260503070851 | 7 | 342 | 0.0 | 0.0 | 0.00 | 0.00 | 0.00 | 95 | 1012.1 |
| 20260503070349 | 7 | 343 | 0.0 | 0.0 | 0.00 | 0.00 | 0.00 | 95 | 1012.0 |
| 20260503060315 | 8 | 351 | 0.0 | 0.0 | 0.00 | 0.00 | 0.00 | 95 | 1011.5 |
| 20260503054802 | 8 | 333 | 0.0 | 0.0 | 0.00 | 0.00 | 0.00 | 95 | 1011.8 |
| 20260503054258 | 8 | 333 | 0.0 | 0.0 | 0.00 | 0.00 | 0.00 | 95 | 1011.9 |
| 20260503053756 | 8 | 333 | 0.0 | 0.0 | 0.00 | 0.00 | 0.00 | 95 | 1011.6 |
| 20260503053255 | 9 | 333 | 0.0 | 0.0 | 0.00 | 0.00 | 0.00 | 95 | 1011.7 |
| 20260503052750 | 9 | 333 | 0.0 | 0.0 | 0.00 | 0.00 | 0.00 | 95 | 1011.6 |
| 20260503052248 | 9 | 333 | 0.0 | 0.0 | 0.00 | 0.00 | 0.00 | 95 | 1011.5 |
| 20260503051742 | 9 | 333 | 0.0 | 0.0 | 0.00 | 0.00 | 0.00 | 95 | 1011.7 |
| 20260503051240 | 9 | 333 | 0.0 | 0.0 | 0.00 | 0.00 | 0.00 | 95 | 1011.6 |
| 20260503050736 | 10 | 333 | 0.0 | 0.0 | 0.00 | 0.00 | 0.00 | 95 | 1011.7 |
| 20260503050233 | 10 | 334 | 0.0 | 0.0 | 0.00 | 0.00 | 0.00 | 95 | 1011.6 |
| 20260503045731 | 10 | 333 | 0.0 | 0.0 | 0.00 | 0.00 | 0.00 | 95 | 1011.7 |
| 20260503045229 | 10 | 339 | 0.0 | 0.0 | 0.00 | 0.00 | 0.00 | 95 | 1011.7 |
| 20260503044724 | 10 | 339 | 0.0 | 0.0 | 0.00 | 0.00 | 0.00 | 95 | 1011.7 |
| 20260503044222 | 10 | 336 | 0.0 | 0.0 | 0.00 | 0.00 | 0.00 | 95 | 1011.7 |
| 20260503043718 | 10 | 328 | 0.0 | 0.0 | 0.00 | 0.00 | 0.00 | 95 | 1011.9 |
| 20260503043216 | 10 | 328 | 0.0 | 0.0 | 0.00 | 0.00 | 0.00 | 95 | 1011.7 |
| 20260503042712 | 10 | 328 | 0.0 | 0.0 | 0.00 | 0.00 | 0.00 | 95 | 1011.5 |
| 20260503042209 | 10 | 328 | 0.0 | 0.0 | 0.00 | 0.00 | 0.00 | 95 | 1011.7 |
| 20260503041704 | 10 | 328 | 0.0 | 0.0 | 0.00 | 0.00 | 0.00 | 95 | 1011.6 |
| 20260503041202 | 10 | 328 | 0.0 | 0.0 | 0.00 | 0.00 | 0.00 | 95 | 1011.6 |
| 20260503040659 | 10 | 328 | 0.0 | 0.0 | 0.00 | 0.00 | 0.00 | 95 | 1011.5 |
| 20260503040157 | 10 | 327 | 0.0 | 0.0 | 0.00 | 0.00 | 0.00 | 95 | 1011.6 |
| 20260503035654 | 10 | 327 | 0.0 | 0.0 | 0.00 | 0.43 | 0.43 | 95 | 1011.4 |
| 20260503035151 | 10 | 323 | 0.0 | 0.0 | 0.00 | 0.43 | 0.43 | 95 | 1011.5 |